Regional Weather Roundup
Issued by NWS Sterling, VA

Home | Current Version | Previous Version | Graphics & Text | Print | Product List | Glossary On
Versions: 1 2 3 4 5 6 7 8 9 10 11 12 13 14 15 16 17 18 19 20 21 22 23 24 25 26 27 28 29 30 31 32 33 34 35 36 37 38 39 40 41 42 43 44 45 46 47 48 49 50
000
ASUS41 KLWX 201310
RWRLWX

REGIONAL WEATHER ROUNDUP
NATIONAL WEATHER SERVICE BALTIMORE MD/WASHINGTON DC
900 AM EDT WED AUG 20 2014

Note: "FAIR" indicates few or no clouds below 12,000 feet
with no significant weather and/or obstructions to visibility.
 TC=TEMPERATURE CELSIUS

 * =Non NWS site. Station does not report precipitation (e.g. rain,
    snow, etc.), thunder, or fog.

DCZ001-MDZ009-015-VAZ040>042-051-053>054-201400-
WASHINGTON METRO
  /KDAA//-FT BELVOIR

CITY           SKY/WX    TMP DP  RH WIND       PRES   REMARKS
WASHINGTON NAT PTSUNNY   77  65  66 S7        29.98R
DULLES         CLOUDY    72  67  84 S6        29.98R
ANDREWS AFB    MOSUNNY   73  67  81 S7        29.98S
QUANTICO       PTSUNNY   74  68  81 S7        29.98S
COLLEGE PARK*  PTSUNNY   73  68  83 CALM      29.97S
LEESBURG*      PTSUNNY   75  72  88 S8        29.98S
GAITHERSBURG*  CLOUDY    72  64  78 SE7       30.02S

$$

MDZ006>007-011-014-201400-
BALTIMORE METRO

CITY           SKY/WX    TMP DP  RH WIND       PRES   REMARKS
BWI AIRPORT    PTSUNNY   73  65  75 CALM      29.98R
MD SCIENCE CTR   N/A     75  64  68 MISG      29.99R
MARTIN STATE   PTSUNNY   73  70  88 SE6       29.99S
ANNAPOLIS      PTSUNNY   74  66  76 SE8       29.98R
FORT MEADE*    PTSUNNY   70  64  83 E5        30.01R

$$

MDZ012-015-019>023-201400-
MARYLAND EASTERN SHORE

CITY           SKY/WX    TMP DP  RH WIND       PRES   REMARKS
OCEAN CITY     SUNNY     76  66  71 E8        29.97R
SALISBURY      SUNNY     76  66  71 E6        29.97S
BAY BRIDGE AP*   N/A     73  64  73 SE6       29.98S
CAMBRIDGE*     SUNNY     72  66  83 CALM      29.98R
EASTON*        PTSUNNY   73  72  94 CALM      30.02R

$$

MDZ017>025-201400-
SOUTHERN MARYLAND

CITY           SKY/WX    TMP DP  RH WIND       PRES   REMARKS
PATUXENT RIVER PTSUNNY   74  67  78 E7        29.97R
ST INIGOES     MOSUNNY   75  65  70 E5        29.97R
LEONARDTOWN*   MOSUNNY   73  64  73 MISG      29.99R

$$

MDZ003>005-201400-
NORTH CENTRAL MARYLAND

CITY           SKY/WX    TMP DP  RH WIND       PRES   REMARKS
FREDERICK*     PTSUNNY   73  70  88 VRB3      29.99S
HAGERSTOWN APT CLOUDY    73  69  87 S9        29.97R
WESTMINSTER*   CLOUDY    72  66  83 SE6       30.00R

$$

MDZ501>502-201400-
WESTERN MARYLAND

CITY           SKY/WX    TMP DP  RH WIND       PRES   REMARKS
OAKLAND*       PTSUNNY   64 N/A N/A S6        30.03R FOG
CUMBERLAND*    CLOUDY    70  70 100 S3        30.00R

$$

VAZ025>031-201400-
SHENANDOAH VALLEY

CITY           SKY/WX    TMP DP  RH WIND       PRES   REMARKS
WINCHESTER*    MOSUNNY   77  70  78 S7        29.97R
STAUNTON*      CLOUDY    71  67  87 SW5       30.03R

$$

WVZ021-048>050-054>055-201400-
EASTERN WEST VIRGINIA PANHANDLE

CITY           SKY/WX    TMP DP  RH WIND       PRES   REMARKS
MARTINSBURG    SUNNY     75  68  78 S3        29.96F
PETERSBURG*    NOT AVBL

$$

VAZ036>039-050-201400-
CENTRAL FOOTHILLS

CITY           SKY/WX    TMP DP  RH WIND       PRES   REMARKS
CHARLOTTESVILL CLOUDY    75  70  84 S6        29.98S HAZE
ORANGE*        CLOUDY    72  68  88 E3        30.00R

$$

VAZ055>057-201400-
NORTH AND CENTRAL PIEDMONT

CITY           SKY/WX    TMP DP  RH WIND       PRES   REMARKS
FREDERICKSBRG* SUNNY     73  72  98 E3        29.97S
STAFFORD*      PTSUNNY   72  72 100 SE5       30.01F

$$

NCZ024-NYZ072-PAZ021-071-VAZ022-071-201400-
OTHER REGIONAL OBSERVATIONS

CITY           SKY/WX    TMP DP  RH WIND       PRES   REMARKS
NEW YORK CITY  PTSUNNY   74  64  71 CALM      30.02R
PHILADELPHIA   PTSUNNY   74  65  73 CALM      29.99R
PITTSBURGH     LGT RAIN  65  64  97 SE6       29.97R
ROANOKE        PTSUNNY   70  66  87 W5        30.04R
RICHMOND       PTSUNNY   74  68  81 E3        29.98R
RALEIGH        PTSUNNY   75  70  84 E3        29.99R HAZE

$$

ANZ530>537-201400-
MARINE OBSERVATIONS

STATION/POSITION TIME  TEMP    WIND        PRES
                       AIR SEA DIR/SP/G
                 (UTC) (F)     (DEG/KT/KT) (MB)
THOMAS PT LIGHT  1300   72 77  120/  6/  7 1015.7R
BALT KEY BRIDGE  1300   74     130/  5/  7 1014.9R
COVE POINT       1300   72     130/  9/ 10 1015.0R
LEWISETTA        1300   74 78  110/  8/  9 1014.5R
SOLOMONS ISLAND  1300      79                N/A
PINEY POINT      1300          120/  8/  9   N/A

$$




USA.gov is the U.S. government's official web portal to all federal, state and local government web resources and services.